Change the Weather History Date:

Tuesday, November 1, 2011

  Actual Average Record
Temperature  
Mean Temperature - -  
Max Temperature - 57 °F 78 °F (1950)
Min Temperature - 41 °F 18 °F (1993)
Moisture  
Dew Point -    
Average Humidity    
Maximum Humidity    
Minimum Humidity    
Precipitation  
Precipitation 0.00 in - - ()
Sea Level Pressure  
Sea Level Pressure 30.03 in    
Wind  
Wind Speed 10 mph (SSE)    
Max Wind Speed 23 mph    
Max Gust Speed 30 mph    
Visibility 10 miles    
Events      
Averages and records for this station are not official NWS values.
T = Trace of Precipitation, MM = Missing Value Source: NWS Daily Summary

Daily Weather History Graph

Daily Weather History Graph

Search for Another Location

Airport or City:

Trip Planner

Search our weather history database for the weather conditions in past years. The results will help you decide how hot, cold, wet, or windy it might be!

Date:

Astronomy

Nov. 01, 2011 Rise Set
Actual Time 7:33 AM CDT 5:55 PM CDT
Civil Twilight 7:04 AM CDT 6:24 PM CDT
Nautical Twilight 6:31 AM CDT 6:57 PM CDT
Astronomical Twilight 5:59 AM CDT 7:30 PM CDT
Moon 1:21 PM CDT 11:37 PM CDT
Length of Visible Light 11h 20m
Length of Day
10h 22m
Waxing Crescent, 40% of the Moon is Illuminated
Nov 1
Waxing Crescent
Nov 2
First Quarter
Nov 10
Full
Nov 18
Last Quarter
Nov 25
New

Hourly Weather History & Observations

Time (CDT) Temp. Dew Point Humidity Pressure Visibility Wind Dir Wind Speed Gust Speed Precip Events Conditions
12:15 AM - - N/A% 30.11 in 10.0 mi SSE 6.9 mph - N/A   Clear
12:35 AM - - N/A% 30.11 in 10.0 mi SSE 6.9 mph - N/A   Clear
12:55 AM - - N/A% 30.11 in 10.0 mi SE 6.9 mph - N/A   Clear
1:15 AM - - N/A% 30.11 in 10.0 mi SE 6.9 mph - N/A   Clear
1:35 AM - - N/A% 30.11 in 10.0 mi SE 5.8 mph - N/A   Clear
1:55 AM - - N/A% 30.11 in 10.0 mi SE 5.8 mph - N/A   Clear
2:15 AM - - N/A% 30.11 in 10.0 mi SE 5.8 mph - N/A   Clear
2:35 AM - - N/A% 30.10 in 10.0 mi SE 6.9 mph - N/A   Clear
2:55 AM - - N/A% 30.10 in 10.0 mi SE 5.8 mph - N/A   Clear
3:15 AM - - N/A% 30.10 in 10.0 mi SE 6.9 mph - N/A   Clear
3:35 AM - - N/A% 30.10 in 10.0 mi SSE 6.9 mph - N/A   Clear
3:55 AM - - N/A% 30.09 in 10.0 mi SE 6.9 mph - N/A   Clear
4:15 AM - - N/A% 30.10 in 10.0 mi SE 6.9 mph - N/A   Clear
4:35 AM - - N/A% 30.09 in 10.0 mi SE 9.2 mph - N/A   Clear
4:55 AM - - N/A% 30.08 in 10.0 mi SSE 9.2 mph - N/A   Clear
5:35 AM - - N/A% 30.07 in 10.0 mi SE 9.2 mph - N/A   Clear
5:55 AM - - N/A% 30.06 in 10.0 mi SE 10.4 mph - N/A   Clear
6:15 AM - - N/A% 30.07 in 10.0 mi SE 10.4 mph - N/A   Clear
6:35 AM - - N/A% 30.06 in 10.0 mi SSE 10.4 mph - N/A   Clear
6:55 AM - - N/A% 30.06 in 10.0 mi SE 8.1 mph - N/A   Clear
7:35 AM - - N/A% 30.06 in 10.0 mi SSE 9.2 mph - N/A   Clear
8:15 AM - - N/A% 30.07 in 10.0 mi SSE 8.1 mph - N/A   Clear
8:35 AM - - N/A% 30.07 in 10.0 mi SSE 9.2 mph - N/A   Clear
8:55 AM - - N/A% 30.07 in 10.0 mi SSE 10.4 mph - N/A   Clear
9:15 AM - - N/A% 30.07 in 10.0 mi SSE 9.2 mph - N/A   Clear
9:35 AM - - N/A% 30.08 in 10.0 mi SSE 10.4 mph - N/A   Clear
9:55 AM - - N/A% 30.07 in 10.0 mi South 9.2 mph - N/A   Clear
10:15 AM - - N/A% 30.07 in 10.0 mi South 11.5 mph - N/A   Clear
10:55 AM - - N/A% 30.06 in 10.0 mi South 12.7 mph - N/A   Clear
11:15 AM - - N/A% 30.05 in 10.0 mi South 10.4 mph - N/A   Clear
11:35 AM - - N/A% 30.04 in 10.0 mi South 10.4 mph - N/A   Clear
12:15 PM - - N/A% 30.03 in 10.0 mi South 11.5 mph - N/A   Clear
12:35 PM - - N/A% 30.02 in 10.0 mi SSW 12.7 mph 18.4 mph N/A   Clear
12:55 PM - - N/A% 30.01 in 10.0 mi South 13.8 mph 19.6 mph N/A   Clear
1:15 PM - - N/A% 30.00 in 10.0 mi South 11.5 mph - N/A   Clear
1:35 PM - - N/A% 29.99 in 10.0 mi SSW 15.0 mph - N/A   Clear
2:15 PM - - N/A% 29.97 in 10.0 mi South 17.3 mph - N/A   Clear
2:55 PM - - N/A% 29.95 in 10.0 mi South 17.3 mph 23.0 mph N/A   Clear
3:15 PM - - N/A% 29.95 in 10.0 mi South 17.3 mph - N/A   Clear
3:35 PM - - N/A% 29.94 in 10.0 mi South 20.7 mph 27.6 mph N/A   Clear
3:55 PM - - N/A% 29.94 in 10.0 mi South 23.0 mph - N/A   Clear
4:15 PM - - N/A% 29.94 in 10.0 mi South 20.7 mph 29.9 mph N/A   Clear
4:35 PM - - N/A% 29.94 in 10.0 mi South 18.4 mph 23.0 mph N/A   Clear
4:55 PM - - N/A% 29.94 in 10.0 mi South 18.4 mph - N/A   Clear
5:15 PM - - N/A% 29.94 in 10.0 mi South 17.3 mph 23.0 mph N/A   Clear
5:35 PM - - N/A% 29.94 in 10.0 mi South 13.8 mph - N/A   Clear
6:15 PM - - N/A% 29.95 in 10.0 mi South 12.7 mph - N/A   Clear
6:35 PM - - N/A% 29.96 in 10.0 mi South 10.4 mph - N/A   Clear
6:55 PM - - N/A% 29.96 in 10.0 mi South 10.4 mph - N/A   Clear
7:15 PM - - N/A% 29.96 in 10.0 mi SSE 10.4 mph - N/A   Clear
7:35 PM - - N/A% 29.97 in 10.0 mi SSE 10.4 mph - N/A   Clear
7:55 PM - - N/A% 29.97 in 10.0 mi South 12.7 mph - N/A   Clear
8:15 PM - - N/A% 29.97 in 10.0 mi South 12.7 mph - N/A   Clear
8:35 PM - - N/A% 29.97 in 10.0 mi South 12.7 mph - N/A   Clear
8:55 PM - - N/A% 29.98 in 10.0 mi South 12.7 mph - N/A   Clear
9:35 PM - - N/A% 29.98 in 10.0 mi South 15.0 mph 20.7 mph N/A   Partly Cloudy
9:55 PM - - N/A% 29.98 in 10.0 mi South 15.0 mph - N/A   Scattered Clouds
10:15 PM - - N/A% 29.98 in 10.0 mi South 18.4 mph - N/A   Clear
10:35 PM - - N/A% 29.98 in 10.0 mi South 17.3 mph - N/A   Clear
11:15 PM - - N/A% 29.99 in 10.0 mi South 15.0 mph - N/A   Clear
11:35 PM - - N/A% 29.99 in 10.0 mi South 16.1 mph - N/A   Clear
11:55 PM - - N/A% 29.99 in 10.0 mi South 15.0 mph - N/A   Clear